Regional Weather Roundup
Issued by NWS Newport/Morehead, NC

Current Version | Previous Version | Text Only | Print | Product List | Glossary On
Versions: 1 2 3 4 5 6 7 8 9 10 11 12 13 14 15 16 17 18 19 20 21 22 23 24 25 26 27 28 29 30 31 32 33 34 35 36 37 38 39 40 41 42 43 44 45 46 47 48 49 50
000
ASUS42 KMHX 171824
RWRMHX
WEATHER ROUNDUP FOR EASTERN NORTH CAROLINA
NATIONAL WEATHER SERVICE NEWPORT/MOREHEAD CITY NC
200 PM EDT FRI APR 17 2015

NOTE: "FAIR" INDICATES FEW OR NO CLOUDS BELOW 12,000 FEET
WITH NO SIGNIFICANT WEATHER AND/OR OBSTRUCTIONS TO VISIBILITY

NCZ015>017-031-032-045>047-102-103-171900-
NORTH COAST

CITY           SKY/WX    TMP DP  RH WIND       PRES   REMARKS
EDENTON        CLOUDY    74  61  63 W6        30.07F
ELIZABETH CITY CLOUDY    74  60  61 CALM      30.07F
KITTY HAWK     MOCLDY    72  60  64 E5        30.06F
MANTEO         PTSUNNY   73  62  66 S9        30.06F

$$

NCZ045>047-081-094-103-104-171900-
CENTRAL COAST

CITY           SKY/WX    TMP DP  RH WIND       PRES   REMARKS
FRISCO         CLOUDY    71  61  70 S5        30.08F
SWANQUARTER      N/A     77 N/A N/A S12       30.03S

$$

NCZ095-097-098-100-101-171900-
SOUTHERN COAST

CITY           SKY/WX    TMP DP  RH WIND       PRES   REMARKS
BEAUFORT       CLOUDY    73  64  73 SE7       30.07F
CEDAR ISLAND     N/A     75 N/A N/A SE9       30.09F
JACKSONVILLE   CLOUDY    74  61  63 SE5       30.07F
PINEY ISLAND   CLOUDY   N/A N/A N/A SE8       30.07F
WILMINGTON     CLOUDY    73  65  75 E9        30.07F


$$

NCZ011>013-027>030-043-044-078>080-089-090>093-098-171900-
COASTAL PLAIN

CITY           SKY/WX    TMP DP  RH WIND       PRES   REMARKS
AHOSKIE        PTSUNNY   72  61  70 CALM      30.07F
CLINTON        CLOUDY    71  66  84 CALM      30.09F
ELIZABETHTOWN  CLOUDY    73  65  74 CALM      30.06F
GOLDSBORO      CLOUDY    73  65  75 W6        30.06F
GREENVILLE     CLOUDY    72  64  78 W7        30.09F
HAVELOCK       CLOUDY    75  61  61 S5        30.08F
KENANSVILLE    HVY RAIN  69  65  89 CALM      30.09F
KINSTON        CLOUDY    73  64  73 CALM      30.08F
NEW BERN       LGT RAIN  74  63  68 N5        30.08F
RICHLANDS      CLOUDY    73  63  68 S3        30.08F
ROCKY MOUNT    CLOUDY    72  64  76 SW6       30.07F
WASHINGTON     PTSUNNY   73  64  73 CALM      30.08F
WHITEVILLE     CLOUDY    73  66  80 N3        30.06F

$$

AMZ130-135-150-152-154-156-158-170-250-252-270-ANZ085-086-088-633-658-670-171900-
MARINE OBSERVATIONS

STATION/POSITION TIME  TEMP    WIND        PRES    WAVE   SWELL
                       AIR SEA DIR/SP/G            HT/PER HT/PER
                 (UTC) (F)     (DEG/KT/KT) (MB)    (FT/S) (FT/S)
CHESAPEAKE LIGHT 1800   59     170/ 16/ 16 1018.5
64 E VA BEACH    1750   61 57  190/  6/  8 1018.5    4/ 9   3/ 9
DUCK             1700   59 52  140/  7/  8 1018.5
2 E DUCK         1711      55                N/A     4/ 7   2/11
10 NE DUCK       NOT AVBL
OREGON INLET     1800   69 57  100/  4/  8 1018.3
HATTERAS CG      1800   72 65  130/  4/  5 1018.2
DIAMOND BUOY     1750   72 74  180/  4/  6 1018.7    6/ 8   7/ 8
CAPE LOOKOUT     1800   68     100/  6/  6 1018.2
BEAUFORT LAB     1800   71 63  150/  9/ 10 1017.5
27 SE WRIGHTSVLE 1800   71 72  120/  8/ 10   N/A
5 SE WRIGHTSVLE  1800   66 63   80/  8/ 10 1018.0
225 S CAPE HAT   1750   72 73  220/ 14/ 16 1017.2    7/ 8   5/ 8
41 SE CHARLESTON 1750   72 74   10/ 12/ 14 1016.0    6/ 9   5/ 9

$$



USA.gov is the U.S. government's official web portal to all federal, state and local government web resources and services.